Location: Balzers
(47.0667°N, 9.5025°E)
Time: 00:17:41
(UTC+00:00)

Daily predictions for brighter satellites

Satellite Brightness Start Highest point End
(mag) Time Altitude Azimuth Time Altitude Azimuth Time Altitude Azimuth
SL-16 R/B 3.9 00:12:20 34° NNE 00:12:20 34° NNE 00:16:14 10° N
Cosmos 1943 Rocket 4.3 00:17:16 21° N 00:17:16 21° N 00:19:35 10° N
CZ-2D R/B 4.3 00:18:45 10° NNE 00:20:45 21° NE 00:20:45 21° NE
Cosmos 2297 Rocket 4.0 00:25:37 10° NNW 00:28:49 27° NNE 00:28:49 27° NNE
Resurs 1-4 Rocket 4.1 00:32:37 10° NNE 00:34:54 24° NE 00:34:54 24° NE
Cosmos 2369 Rocket 4.2 00:41:05 22° NNW 00:41:05 22° NNW 00:43:45 10° N
CZ-4C R/B 4.3 00:47:10 21° NNW 00:48:06 21° NNW 00:53:02 10° NNE
USA 267 4.4 00:50:45 10° ENE 00:54:57 33° E 00:54:57 33° E
Cosmos 2218 Rocket 4.5 01:19:08 10° N 01:24:06 56° N 01:24:06 56° N
Cosmos 2227 Rocket 3.6 01:22:23 10° NNW 01:25:13 30° NNW 01:25:13 30° NNW
Cosmos 2366 rocket 4.5 01:21:43 10° N 01:26:34 56° N 01:26:34 56° N
Lacrosse 5 3.8 01:32:48 23° E 01:32:48 23° E 01:35:24 10° ENE
USA 234 3.6 01:26:24 10° ESE 01:32:48 61° NNE 01:37:44 18° NW
ADEOS II 2.8 01:34:24 10° NNE 01:38:28 49° NE 01:38:28 49° NE
CZ-4B R/B 4.4 01:37:08 10° NNE 01:40:48 47° NE 01:40:48 47° NE
SL-08 R/B 4.5 01:47:13 39° NNE 01:47:13 39° NNE 01:50:33 10° N
Cosmos 2181 Rocket 4.3 01:47:57 54° NNW 01:47:57 54° NNW 01:52:53 10° N
IDEFIX/ARIANE 42P 3.9 01:47:46 10° NNE 01:52:31 33° E 01:53:40 30° ESE
SL-16 R/B 4.1 01:57:25 22° NW 01:57:25 22° NW 01:59:51 10° NNW
Cosmos 1151 Rocket 4.3 02:00:38 39° NE 02:00:38 39° NE 02:03:45 10° NNE
ARIANE 5 R/B 3.1 01:56:43 10° NNE 02:01:41 49° E 02:01:51 49° ESE
IRS-1D 4.0 01:57:24 10° NNE 02:01:48 59° N 02:01:48 59° N
CZ-2D R/B 3.4 01:58:45 10° N 02:02:04 31° NNW 02:02:04 31° NNW
ATLAS 5 CENTAUR R/B 3.2 02:07:56 29° N 02:07:56 29° N 02:11:11 10° NNE
CBERS-1 4.4 02:09:52 10° N 02:13:59 52° NNW 02:13:59 52° NNW
Cosmos 2297 Rocket 4.2 02:09:32 10° NW 02:10:32 15° NW 02:10:32 15° NW
Resurs 1-4 Rocket 3.5 02:12:49 10° N 02:15:58 26° NW 02:15:58 26° NW
Cosmos 2082 3.6 02:13:38 10° NNW 02:19:21 87° WSW 02:20:23 62° SSE
USA 305 3.8 02:22:42 43° E 02:22:42 43° E 02:25:56 10° ENE
Meteor 1-26 Rocket 4.5 02:24:04 43° SSE 02:25:41 61° E 02:31:00 10° NNE
USA 306 3.7 02:26:37 48° E 02:26:37 48° E 02:30:00 10° ENE
X-37B 3.3 02:29:08 17° E 02:29:08 17° E 02:30:02 10° E
CZ-2D R/B 3.9 02:24:36 10° NNE 02:28:45 60° E 02:28:45 60° E
SJ 16-02 3.6 02:25:47 10° N 02:29:26 25° ENE 02:33:03 10° ESE
Meteor 1-25 Rocket 4.1 02:25:29 10° NNW 02:31:21 83° W 02:33:00 49° S
Cosmos 389 Rocket 3.9 02:32:19 35° E 02:32:19 35° E 02:35:30 10° NNE
Cosmos 1697 Rocket 2.5 02:32:33 68° SSW 02:33:19 89° WNW 02:38:58 10° NNE
ASTEX 1 3.6 02:29:49 10° N 02:34:50 70° E 02:36:22 44° SSE
IRS-P3 4.1 02:29:58 10° N 02:35:16 64° WNW 02:35:28 64° W
H-2A R/B 3.2 02:32:38 10° SE 02:36:46 44° ENE 02:41:01 10° N
Cosmos 1980 Rocket 2.7 02:35:19 35° S 02:37:27 56° ESE 02:43:00 10° NE
CZ-2C R/B 4.4 02:34:26 10° NE 02:38:49 28° E 02:43:14 10° SSE
Iridium 2 4.4 02:39:48 47° ESE 02:40:09 49° E 02:43:48 10° NNE
USA 267 3.2 02:33:37 10° NE 02:40:10 75° NNW 02:42:17 46° WSW
ERS-2 4.5 02:37:14 10° ESE 02:40:15 25° ENE 02:43:18 10° N
Cosmos 1602 4.3 02:40:22 10° N 02:43:13 48° N 02:43:13 48° N
ERS-1 4.4 02:39:53 10° N 02:45:00 70° WNW 02:45:42 61° WSW
NOSS 2-2 (E) 4.5 02:39:46 10° NW 02:45:31 75° SW 02:53:32 10° SSE
Cosmos 2263 Rocket 3.2 02:40:06 10° NNW 02:45:32 46° NE 02:50:58 10° SE
SL-8 R/B 3.6 02:46:01 67° WNW 02:46:40 86° NNE 02:51:27 10° ESE
Meteor 1-14 Rocket 4.2 02:42:26 10° N 02:48:06 79° ENE 02:53:39 10° SSE
SL-16 R/B 4.4 02:46:38 10° SSE 02:50:53 22° E 02:55:09 10° NE
ATLAS 2AS CENTAUR R/B 4.4 02:44:43 10° NW 02:51:35 34° NNE 02:58:01 10° E
USA 307 2.7 02:52:25 79° SSW 02:52:38 84° SE 02:56:54 10° ENE
NOSS 2-2 (D) 4.4 02:48:18 10° NW 02:53:57 77° SW 03:01:50 10° SSE
Cosmos 1821 Rocket 4.1 02:48:31 10° NNW 02:54:37 52° W 02:56:29 39° SW
Cosmos 1812 4.4 02:52:18 12° SSE 02:55:27 32° E 02:58:55 10° NNE
USA 308 2.7 02:55:23 75° SW 02:55:43 87° SE 02:59:59 10° ENE
Cosmos 1470 Rocket 3.8 02:51:39 10° NNW 02:55:26 51° WNW 02:55:26 51° WNW
Spot 4 Rocket 3.9 02:52:45 10° NNE 02:57:54 78° WNW 02:59:44 41° SSW
Cosmos 1500 4.0 02:57:12 10° N 03:01:00 52° ENE 03:04:44 10° SSE
Landsat 5 3.6 03:00:15 10° SSE 03:04:46 85° ENE 03:09:17 10° NNW
Cosmos 1934 Rocket 3.8 03:03:43 10° NNW 03:09:43 67° W 03:15:43 10° S
Cosmos 1782 2.8 03:10:11 54° W 03:10:28 56° WNW 03:14:28 10° N
Cosmos 1777 Rocket 4.2 03:05:32 10° NW 03:10:29 43° WSW 03:12:06 33° SSW
ERBS 4.3 03:09:57 18° SSE 03:11:09 21° SE 03:13:46 10° ENE
Cosmos 1238 Rocket 3.9 03:05:22 10° NNW 03:12:01 72° W 03:18:10 10° S
Lacrosse 5 1.9 03:12:00 40° WSW 03:13:44 67° NW 03:18:48 10° NE
ADEOS Rocket 3.7 03:08:35 10° SSE 03:15:21 62° ENE 03:21:26 10° N
CZ-4B R/B 3.5 03:12:51 10° SE 03:15:35 27° ENE 03:18:22 10° N
USA 234 3.3 03:09:31 10° SSE 03:15:53 54° SW 03:22:18 10° WNW
Cosmos 1515 Rocket 3.8 03:15:07 43° WSW 03:16:00 50° WNW 03:20:21 10° N
CZ-2C R/B 2.6 03:13:53 10° N 03:17:37 64° WNW 03:18:32 46° SW
ADEOS II 3.4 03:14:59 10° NNW 03:18:53 21° WNW 03:19:24 21° WNW
Nadezhda 3 Rocket 4.5 03:18:38 30° WSW 03:20:40 38° WNW 03:26:23 10° N
USA 276 2.5 03:21:38 46° NW 03:22:11 54° N 03:25:21 10° ENE
Cosmos 972 Rocket 4.5 03:24:16 31° W 03:25:35 37° WNW 03:30:10 10° N
Cosmos 44 3.0 03:24:49 30° SW 03:27:00 90° E 03:31:41 10° NE
MSX 3.9 03:22:43 10° N 03:28:25 61° WNW 03:32:39 18° SW
Cosmos 1356 3.7 03:25:09 10° NNW 03:28:27 43° W 03:28:28 43° W
IRIDIUM 103 4.3 03:24:52 10° N 03:30:07 88° E 03:35:21 10° S
Cosmos 921 Rocket 2.9 03:27:48 19° SSW 03:30:48 85° ESE 03:35:00 10° NNE
Cosmos 2278 3.9 03:28:10 26° SW 03:31:17 57° WNW 03:36:56 10° NNE
IDEFIX/ARIANE 42P 3.2 03:27:18 10° N 03:32:09 38° WNW 03:34:28 25° WSW
Cosmos 1605 Rocket 4.0 03:26:10 10° NNW 03:32:31 70° W 03:38:52 10° S
Meteor 1-11 Rocket 4.1 03:26:53 10° N 03:32:43 69° ENE 03:38:21 10° SSE
Cosmos 1933 Rocket 4.2 03:29:21 10° NNW 03:33:17 33° W 03:34:18 29° WSW
Cosmos 2228 Rocket 3.0 03:31:12 20° SSW 03:34:08 62° W 03:38:31 10° N
CZ-3B R/B 3.3 03:32:06 21° WNW 03:34:12 43° N 03:44:08 10° ENE
Cosmos 2369 4.5 03:36:41 24° W 03:39:25 36° NW 03:44:43 10° NNE
ARIANE 5 R/B 3.7 03:36:22 10° N 03:40:30 25° WNW 03:42:10 21° W
Cosmos 1937 Rocket 4.2 03:38:26 10° NNW 03:43:33 57° ENE 03:48:35 10° SE
CZ-4C R/B 3.8 03:42:39 26° SW 03:43:38 30° W 03:46:52 10° NNW
ALOS 3.4 03:42:57 10° NNE 03:47:27 45° E 03:51:55 10° S
Cosmos 1733 Rocket 4.2 03:43:15 10° N 03:47:29 47° ENE 03:51:39 10° SSE
Meteor 1-27 Rocket 4.3 03:41:38 10° S 03:47:30 67° E 03:53:23 10° NNE
IRIDIUM 106 4.3 03:43:15 10° N 03:48:26 65° W 03:53:35 10° S
Cosmos 1536 3.3 03:47:12 10° N 03:51:17 67° E 03:55:19 10° SSE
Cosmos 1869 Rocket 3.7 03:48:08 10° NNW 03:52:22 50° W 03:56:33 10° S
ATLAS 5 CENTAUR R/B 4.0 03:50:47 10° NW 03:53:08 14° N 03:55:40 10° NNE
GENESIS II 4.3 03:51:47 14° SW 03:55:11 85° SE 03:59:15 10° NE
Cosmos 1484 Rocket 3.6 03:52:21 10° NNE 03:56:17 55° E 04:00:13 10° S
Meteor 1-4 Rocket 2.3 03:52:57 10° SSW 03:56:23 68° WNW 03:59:54 10° N
USA 305 3.5 03:58:51 17° W 04:01:54 45° NNW 04:06:00 10° NE
X-37B 0.8 04:01:25 20° W 04:03:24 54° S 04:06:31 10° ESE
Cosmos 1689 Rocket 3.3 04:01:06 10° SSE 04:03:57 45° ENE 04:06:49 10° N
USA 306 3.6 04:02:46 15° W 04:06:00 43° NNW 04:10:05 10° NE
Cosmos 1727 Rocket 4.0 04:00:26 10° SSW 04:06:46 68° WNW 04:13:05 10° N
Cosmos 1763 Rocket 3.6 04:01:30 10° SSW 04:06:49 89° ESE 04:12:10 10° NNE
Meteor 1-31 Rocket 3.4 04:03:17 10° NNE 04:07:04 59° E 04:10:51 10° S
Cosmos 389 Rocket 4.2 04:06:11 15° W 04:07:04 16° WNW 04:09:23 10° NNW
Cosmos 2100 Rocket 4.1 04:00:45 10° N 04:07:10 90° WSW 04:13:33 10° S
SJ 16-02 1.8 04:04:03 10° NW 04:08:08 38° WSW 04:12:12 10° S
Cosmos 1802 Rocket 4.3 04:03:18 10° N 04:09:30 73° E 04:15:44 10° SSE
PSLV R/B 4.0 04:05:36 10° N 04:09:32 39° WNW 04:13:26 10° SW
Cosmos 2360 Rocket 3.5 04:06:12 10° S 04:11:30 42° ESE 04:16:48 10° NE
H-2A R/B 3.3 04:09:38 10° SW 04:12:57 21° W 04:16:20 10° NW
ERS-2 3.1 04:10:36 10° SSW 04:13:44 26° W 04:16:53 10° NW
CZ-2C R/B 2.9 04:12:21 10° N 04:17:10 43° WNW 04:22:01 10° SW
Cosmos 1697 Rocket 4.2 04:14:19 11° W 04:18:07 20° NW 04:22:08 10° N
NOSS 3-4 (A) 4.0 04:12:24 10° NW 04:19:23 82° NE 04:27:09 10° SE
NOSS 3-4 (C) 4.0 04:12:30 10° NW 04:19:29 81° NE 04:27:15 10° SE
Gbstr 26 Del rocket 4.4 04:12:19 10° WNW 04:20:17 69° SW 04:27:14 10° SE
METEOR-M 4.3 04:16:12 10° NNE 04:21:35 79° ESE 04:26:56 10° S
Cosmos 1980 Rocket 3.2 04:17:07 11° WSW 04:21:48 29° NW 04:26:42 10° N
USA 267 4.1 04:16:39 10° NE 04:22:41 41° NNW 04:28:42 10° WNW
FENGYUN 3A 3.7 04:19:30 10° NNE 04:24:56 84° WNW 04:30:20 10° SSW
Cosmos 2322 Rocket 2.2 04:21:04 10° SSW 04:26:45 86° WNW 04:32:30 10° NNE
Cosmos 990 Rocket 4.4 04:22:57 10° NW 04:27:49 41° WSW 04:32:41 10° S
NOSS 3-3 (A) 4.2 04:23:09 10° WSW 04:28:54 56° NW 04:35:30 10° NE
Cosmos 1459 Rocket 3.9 04:22:49 10° NNW 04:28:55 69° W 04:34:53 10° S
SL-8 R/B 4.3 04:24:31 10° W 04:29:00 40° SSW 04:33:27 10° SE
NOSS 3-3 (C) 4.2 04:23:19 10° WSW 04:29:01 56° NW 04:35:35 10° NE
Cosmos 2263 Rocket 2.9 04:24:21 10° NW 04:29:18 32° WSW 04:34:15 10° SSW
SJ-12 4.4 04:25:11 10° NNE 04:29:18 66° ESE 04:33:24 10° S
CZ-4C R/B 4.2 04:23:04 10° NNW 04:29:32 41° NE 04:37:01 10° ESE
Cosmos 1812 4.1 04:28:23 10° WSW 04:31:19 21° WNW 04:34:16 10° NNW
Cosmos 468 Rocket 4.2 04:26:22 10° SW 04:31:32 53° WNW 04:36:43 10° NNE
Cosmos 2123 Rocket 4.5 04:25:25 10° S 04:31:36 70° E 04:37:52 10° NNE
USA 307 3.9 04:29:02 10° W 04:33:00 37° NNW 04:36:59 10° NE
SL-16 R/B 2.3 04:28:52 10° SW 04:34:29 64° WNW 04:40:09 10° NNE
COSMO-SKYMED 1 2.6 04:31:07 10° SSE 04:35:28 87° WSW 04:39:51 10° NNW
USA 308 3.9 04:32:10 10° W 04:36:07 36° NNW 04:40:06 10° NE
Cosmos 1844 Rocket 3.1 04:30:52 10° NNW 04:36:31 71° ENE 04:42:09 10° SE
ATLAS CENTAUR R/B 3.3 04:33:31 10° NW 04:42:21 54° NNE 04:45:57 10° ESE
